Year,Month,Day,Hour,Minute,Value (Times are PST for temperature in C)
2011,05,05,00,00,9.30
2011,05,05,00,01,9.30
2011,05,05,00,02,9.30
2011,05,05,00,03,9.30
2011,05,05,00,04,9.30
2011,05,05,00,05,9.30
2011,05,05,00,06,9.30
2011,05,05,00,07,9.30
2011,05,05,00,08,9.20
2011,05,05,00,09,9.20
2011,05,05,00,10,9.20
2011,05,05,00,11,9.20
2011,05,05,00,12,9.20
2011,05,05,00,13,9.20
2011,05,05,00,14,9.20
2011,05,05,00,15,9.20
2011,05,05,00,16,9.20
2011,05,05,00,17,9.20
2011,05,05,00,18,9.20
2011,05,05,00,19,9.20
2011,05,05,00,20,9.20
2011,05,05,00,21,9.20
2011,05,05,00,22,9.10
2011,05,05,00,23,9.10
2011,05,05,00,24,9.10
2011,05,05,00,25,9.10
2011,05,05,00,26,9.10
2011,05,05,00,27,9.10
2011,05,05,00,28,9.10
2011,05,05,00,29,9.10
2011,05,05,00,30,9.10
2011,05,05,00,31,9.10
2011,05,05,00,32,9.10
2011,05,05,00,33,9.10
2011,05,05,00,34,9.10
2011,05,05,00,35,9.10
2011,05,05,00,36,9.20
2011,05,05,00,37,9.20
2011,05,05,00,38,9.20
2011,05,05,00,39,9.20
2011,05,05,00,40,9.20
2011,05,05,00,41,9.20
2011,05,05,00,42,9.20
2011,05,05,00,43,9.20
2011,05,05,00,44,9.20
2011,05,05,00,45,9.10
2011,05,05,00,46,9.10
2011,05,05,00,47,9.10
2011,05,05,00,48,9.10
2011,05,05,00,49,9.10
2011,05,05,00,50,9.10
2011,05,05,00,51,9.10
2011,05,05,00,52,9.00
2011,05,05,00,53,9.00
2011,05,05,00,54,9.00
2011,05,05,00,55,9.00
2011,05,05,00,56,9.00
2011,05,05,00,57,9.10
2011,05,05,00,58,9.00
2011,05,05,00,59,9.10
2011,05,05,01,00,9.10
2011,05,05,01,01,9.10
2011,05,05,01,02,9.10
2011,05,05,01,03,9.10
2011,05,05,01,04,9.10
2011,05,05,01,05,9.10
2011,05,05,01,06,9.20
2011,05,05,01,07,9.20
2011,05,05,01,08,9.20
2011,05,05,01,09,9.20
2011,05,05,01,10,9.20
2011,05,05,01,11,9.20
2011,05,05,01,12,9.20
2011,05,05,01,13,9.10
2011,05,05,01,14,9.10
2011,05,05,01,15,9.10
2011,05,05,01,16,9.10
2011,05,05,01,17,9.10
2011,05,05,01,18,9.10
2011,05,05,01,19,9.00
2011,05,05,01,20,9.00
2011,05,05,01,21,9.00
2011,05,05,01,22,9.00
2011,05,05,01,23,9.00
2011,05,05,01,24,9.00
2011,05,05,01,25,9.10
2011,05,05,01,26,9.10
2011,05,05,01,27,9.10
2011,05,05,01,28,9.10
2011,05,05,01,29,9.10
2011,05,05,01,30,9.10
2011,05,05,01,31,9.10
2011,05,05,01,32,9.10
2011,05,05,01,33,9.00
2011,05,05,01,34,9.00
2011,05,05,01,35,8.90
2011,05,05,01,36,8.90
2011,05,05,01,37,8.80
2011,05,05,01,38,8.80
2011,05,05,01,39,8.80
2011,05,05,01,40,8.80
2011,05,05,01,41,8.80
2011,05,05,01,42,8.80
2011,05,05,01,43,8.80
2011,05,05,01,44,8.80
2011,05,05,01,45,8.80
2011,05,05,01,46,8.80
2011,05,05,01,47,8.80
2011,05,05,01,48,8.80
2011,05,05,01,49,8.80
2011,05,05,01,50,8.80
2011,05,05,01,51,8.90
2011,05,05,01,52,8.90
2011,05,05,01,53,8.90
2011,05,05,01,54,9.00
2011,05,05,01,55,9.00
2011,05,05,01,56,9.00
2011,05,05,01,57,9.00
2011,05,05,01,58,9.00
2011,05,05,01,59,8.90
2011,05,05,02,00,8.90
2011,05,05,02,01,8.90
2011,05,05,02,02,8.90
2011,05,05,02,03,8.90
2011,05,05,02,04,8.90
2011,05,05,02,05,8.90
2011,05,05,02,06,9.00
2011,05,05,02,07,9.00
2011,05,05,02,08,9.10
2011,05,05,02,09,9.10
2011,05,05,02,10,9.10
2011,05,05,02,11,9.10
2011,05,05,02,12,9.10
2011,05,05,02,13,9.10
2011,05,05,02,14,9.10
2011,05,05,02,15,9.10
2011,05,05,02,16,9.10
2011,05,05,02,17,9.00
2011,05,05,02,18,9.00
2011,05,05,02,19,9.00
2011,05,05,02,20,8.90
2011,05,05,02,21,8.90
2011,05,05,02,22,8.90
2011,05,05,02,23,8.90
2011,05,05,02,24,9.00
2011,05,05,02,25,9.00
2011,05,05,02,26,9.00
2011,05,05,02,27,9.00
2011,05,05,02,28,9.10
2011,05,05,02,29,9.10
2011,05,05,02,30,9.10
2011,05,05,02,31,9.10
2011,05,05,02,32,9.00
2011,05,05,02,33,9.00
2011,05,05,02,34,8.90
2011,05,05,02,35,8.90
2011,05,05,02,36,8.90
2011,05,05,02,37,8.90
2011,05,05,02,38,8.90
2011,05,05,02,39,8.90
2011,05,05,02,40,8.90
2011,05,05,02,41,8.90
2011,05,05,02,42,8.90
2011,05,05,02,43,8.90
2011,05,05,02,44,8.90
2011,05,05,02,45,8.90
2011,05,05,02,46,8.90
2011,05,05,02,47,8.80
2011,05,05,02,48,8.80
2011,05,05,02,49,8.80
2011,05,05,02,50,8.80
2011,05,05,02,51,8.90
2011,05,05,02,52,8.90
2011,05,05,02,53,8.90
2011,05,05,02,54,8.90
2011,05,05,02,55,8.90
2011,05,05,02,56,8.90
2011,05,05,02,57,9.00
2011,05,05,02,58,9.00
2011,05,05,02,59,9.10
2011,05,05,03,00,9.10
2011,05,05,03,01,9.20
2011,05,05,03,02,9.20
2011,05,05,03,03,9.30
2011,05,05,03,04,9.30
2011,05,05,03,05,9.30
2011,05,05,03,06,9.30
2011,05,05,03,07,9.30
2011,05,05,03,08,9.30
2011,05,05,03,09,9.30
2011,05,05,03,10,9.30
2011,05,05,03,11,9.30
2011,05,05,03,12,9.30
2011,05,05,03,13,9.30
2011,05,05,03,14,9.30
2011,05,05,03,15,9.30
2011,05,05,03,16,9.30
2011,05,05,03,17,9.20
2011,05,05,03,18,9.20
2011,05,05,03,19,9.20
2011,05,05,03,20,9.20
2011,05,05,03,21,9.20
2011,05,05,03,22,9.10
2011,05,05,03,23,9.10
2011,05,05,03,24,9.10
2011,05,05,03,25,9.00
2011,05,05,03,26,9.00
2011,05,05,03,27,9.00
2011,05,05,03,28,9.00
2011,05,05,03,29,8.90
2011,05,05,03,30,8.90
2011,05,05,03,31,8.90
2011,05,05,03,32,8.80
2011,05,05,03,33,8.80
2011,05,05,03,34,8.80
2011,05,05,03,35,8.80
2011,05,05,03,36,8.70
2011,05,05,03,37,8.70
2011,05,05,03,38,8.70
2011,05,05,03,39,8.70
2011,05,05,03,40,8.70
2011,05,05,03,41,8.60
2011,05,05,03,42,8.60
2011,05,05,03,43,8.60
2011,05,05,03,44,8.60
2011,05,05,03,45,8.60
2011,05,05,03,46,8.60
2011,05,05,03,47,8.60
2011,05,05,03,48,8.60
2011,05,05,03,49,8.50
2011,05,05,03,50,8.50
2011,05,05,03,51,8.50
2011,05,05,03,52,8.40
2011,05,05,03,53,8.40
2011,05,05,03,54,8.40
2011,05,05,03,55,8.30
2011,05,05,03,56,8.30
2011,05,05,03,57,8.30
2011,05,05,03,58,8.20
2011,05,05,03,59,8.20
2011,05,05,04,00,8.20
2011,05,05,04,01,8.20
2011,05,05,04,02,8.10
2011,05,05,04,03,8.10
2011,05,05,04,04,8.10
2011,05,05,04,05,8.10
2011,05,05,04,06,8.10
2011,05,05,04,07,8.10
2011,05,05,04,08,8.10
2011,05,05,04,09,8.10
2011,05,05,04,10,8.10
2011,05,05,04,11,8.10
2011,05,05,04,12,8.10
2011,05,05,04,13,8.00
2011,05,05,04,14,8.00
2011,05,05,04,15,8.00
2011,05,05,04,16,7.90
2011,05,05,04,17,7.90
2011,05,05,04,18,7.80
2011,05,05,04,19,7.80
2011,05,05,04,20,7.70
2011,05,05,04,21,7.70
2011,05,05,04,22,7.70
2011,05,05,04,23,7.70
2011,05,05,04,24,7.60
2011,05,05,04,25,7.60
2011,05,05,04,26,7.60
2011,05,05,04,27,7.60
2011,05,05,04,28,7.60
2011,05,05,04,29,7.60
2011,05,05,04,30,7.60
2011,05,05,04,31,7.60
2011,05,05,04,32,7.60
2011,05,05,04,33,7.60
2011,05,05,04,34,7.60
2011,05,05,04,35,7.60
2011,05,05,04,36,7.60
2011,05,05,04,37,7.60
2011,05,05,04,38,7.60
2011,05,05,04,39,7.50
2011,05,05,04,40,7.50
2011,05,05,04,41,7.40
2011,05,05,04,42,7.40
2011,05,05,04,43,7.30
2011,05,05,04,44,7.30
2011,05,05,04,45,7.30
2011,05,05,04,46,7.30
2011,05,05,04,47,7.30
2011,05,05,04,48,7.20
2011,05,05,04,49,7.20
2011,05,05,04,50,7.20
2011,05,05,04,51,7.20
2011,05,05,04,52,7.20
2011,05,05,04,53,7.20
2011,05,05,04,54,7.20
2011,05,05,04,55,7.20
2011,05,05,04,56,7.20
2011,05,05,04,57,7.20
2011,05,05,04,58,7.20
2011,05,05,04,59,7.20
2011,05,05,05,00,7.20
2011,05,05,05,01,7.20
2011,05,05,05,02,7.20
2011,05,05,05,03,7.20
2011,05,05,05,04,7.20
2011,05,05,05,05,7.20
2011,05,05,05,06,7.20
2011,05,05,05,07,7.10
2011,05,05,05,08,7.10
2011,05,05,05,09,7.10
2011,05,05,05,10,7.10
2011,05,05,05,11,7.20
2011,05,05,05,12,7.10
2011,05,05,05,13,7.10
2011,05,05,05,14,7.10
2011,05,05,05,15,7.10
2011,05,05,05,16,7.10
2011,05,05,05,17,7.10
2011,05,05,05,18,7.10
2011,05,05,05,19,7.10
2011,05,05,05,20,7.10
2011,05,05,05,21,7.10
2011,05,05,05,22,7.00
2011,05,05,05,23,7.00
2011,05,05,05,24,7.00
2011,05,05,05,25,7.00
2011,05,05,05,26,6.90
2011,05,05,05,27,6.90
2011,05,05,05,28,6.90
2011,05,05,05,29,6.90
2011,05,05,05,30,6.90
2011,05,05,05,31,6.90
2011,05,05,05,32,6.90
2011,05,05,05,33,6.90
2011,05,05,05,34,6.90
2011,05,05,05,35,6.90
2011,05,05,05,36,6.90
2011,05,05,05,37,6.90
2011,05,05,05,38,6.90
2011,05,05,05,39,6.90
2011,05,05,05,40,6.90
2011,05,05,05,41,6.90
2011,05,05,05,42,6.90
2011,05,05,05,43,6.90
2011,05,05,05,44,6.90
2011,05,05,05,45,6.90
2011,05,05,05,46,6.90
2011,05,05,05,47,6.90
2011,05,05,05,48,6.80
2011,05,05,05,49,6.80
2011,05,05,05,50,6.80
2011,05,05,05,51,6.80
2011,05,05,05,52,6.80
2011,05,05,05,53,6.80
2011,05,05,05,54,6.80
2011,05,05,05,55,6.80
2011,05,05,05,56,6.80
2011,05,05,05,57,6.80
2011,05,05,05,58,6.80
2011,05,05,05,59,6.80
2011,05,05,06,00,6.80
2011,05,05,06,01,6.80
2011,05,05,06,02,6.80
2011,05,05,06,03,6.80
2011,05,05,06,04,6.80
2011,05,05,06,05,6.80
2011,05,05,06,06,6.80
2011,05,05,06,07,6.80
2011,05,05,06,08,6.80
2011,05,05,06,09,6.80
2011,05,05,06,10,6.80
2011,05,05,06,11,6.80
2011,05,05,06,12,6.80
2011,05,05,06,13,6.90
2011,05,05,06,14,6.90
2011,05,05,06,15,6.90
2011,05,05,06,16,6.90
2011,05,05,06,17,6.90
2011,05,05,06,18,6.90
2011,05,05,06,19,6.90
2011,05,05,06,20,6.90
2011,05,05,06,21,6.90
2011,05,05,06,22,6.90
2011,05,05,06,23,6.90
2011,05,05,06,24,6.90
2011,05,05,06,25,6.90
2011,05,05,06,26,6.90
2011,05,05,06,27,6.90
2011,05,05,06,28,7.00
2011,05,05,06,29,7.00
2011,05,05,06,30,7.00
2011,05,05,06,31,6.90
2011,05,05,06,32,6.90
2011,05,05,06,33,6.90
2011,05,05,06,34,6.90
2011,05,05,06,35,6.90
2011,05,05,06,36,6.90
2011,05,05,06,37,6.90
2011,05,05,06,38,6.90
2011,05,05,06,39,6.90
2011,05,05,06,40,6.90
2011,05,05,06,41,6.90
2011,05,05,06,42,6.90
2011,05,05,06,43,6.90
2011,05,05,06,44,6.90
2011,05,05,06,45,6.90
2011,05,05,06,46,6.80
2011,05,05,06,47,6.80
2011,05,05,06,48,6.80
2011,05,05,06,49,6.80
2011,05,05,06,50,6.80
2011,05,05,06,51,6.80
2011,05,05,06,52,6.80
2011,05,05,06,53,6.80
2011,05,05,06,54,6.80
2011,05,05,06,55,6.80
2011,05,05,06,56,6.80
2011,05,05,06,57,6.80
2011,05,05,06,58,6.80
2011,05,05,06,59,6.80
2011,05,05,07,00,6.70
2011,05,05,07,01,6.70
2011,05,05,07,02,6.80
2011,05,05,07,03,6.80
2011,05,05,07,04,6.80
2011,05,05,07,05,6.80
2011,05,05,07,06,6.90
2011,05,05,07,07,6.90
2011,05,05,07,08,6.90
2011,05,05,07,09,6.90
2011,05,05,07,10,6.90
2011,05,05,07,11,6.90
2011,05,05,07,12,6.90
2011,05,05,07,13,7.00
2011,05,05,07,14,7.00
2011,05,05,07,15,7.00
2011,05,05,07,16,7.00
2011,05,05,07,17,7.10
2011,05,05,07,18,7.10
2011,05,05,07,19,7.10
2011,05,05,07,20,7.20
2011,05,05,07,21,7.20
2011,05,05,07,22,7.20
2011,05,05,07,23,7.20
2011,05,05,07,24,7.20
2011,05,05,07,25,7.20
2011,05,05,07,26,7.20
2011,05,05,07,27,7.20
2011,05,05,07,28,7.20
2011,05,05,07,29,7.20
2011,05,05,07,30,7.20
2011,05,05,07,31,7.20
2011,05,05,07,32,7.20
2011,05,05,07,33,7.20
2011,05,05,07,34,7.20
2011,05,05,07,35,7.20
2011,05,05,07,36,7.10
2011,05,05,07,37,7.10
2011,05,05,07,38,7.00
2011,05,05,07,39,7.00
2011,05,05,07,40,7.00
2011,05,05,07,41,7.00
2011,05,05,07,42,7.10
2011,05,05,07,43,7.10
2011,05,05,07,44,7.10
2011,05,05,07,45,7.10
2011,05,05,07,46,7.20
2011,05,05,07,47,7.20
2011,05,05,07,48,7.20
2011,05,05,07,49,7.20
2011,05,05,07,50,7.20
2011,05,05,07,51,7.20
2011,05,05,07,52,7.20
2011,05,05,07,53,7.20
2011,05,05,07,54,7.20
2011,05,05,07,55,7.20
2011,05,05,07,56,7.20
2011,05,05,07,57,7.20
2011,05,05,07,58,7.20
2011,05,05,07,59,7.20
2011,05,05,08,00,7.20
2011,05,05,08,01,7.20
2011,05,05,08,02,7.20
2011,05,05,08,03,7.20
2011,05,05,08,04,7.20
2011,05,05,08,05,7.20
2011,05,05,08,06,7.20
2011,05,05,08,07,7.20
2011,05,05,08,08,7.20
2011,05,05,08,09,7.20
2011,05,05,08,10,7.20
2011,05,05,08,11,7.20
2011,05,05,08,12,7.30
2011,05,05,08,13,7.30
2011,05,05,08,14,7.30
2011,05,05,08,15,7.30
2011,05,05,08,16,7.40
2011,05,05,08,17,7.40
2011,05,05,08,18,7.40
2011,05,05,08,19,7.40
2011,05,05,08,20,7.50
2011,05,05,08,21,7.50
2011,05,05,08,22,7.50
2011,05,05,08,23,7.50
2011,05,05,08,24,7.60
2011,05,05,08,25,7.60
2011,05,05,08,26,7.60
2011,05,05,08,27,7.60
2011,05,05,08,28,7.60
2011,05,05,08,29,7.60
2011,05,05,08,30,7.70
2011,05,05,08,31,7.70
2011,05,05,08,32,7.70
2011,05,05,08,33,7.80
2011,05,05,08,34,7.90
2011,05,05,08,35,7.90
2011,05,05,08,36,7.90
2011,05,05,08,37,8.00
2011,05,05,08,38,8.10
2011,05,05,08,39,8.10
2011,05,05,08,40,8.10
2011,05,05,08,41,8.20
2011,05,05,08,42,8.20
2011,05,05,08,43,8.30
2011,05,05,08,44,8.30
2011,05,05,08,45,8.40
2011,05,05,08,46,8.40
2011,05,05,08,47,8.40
2011,05,05,08,48,8.40
2011,05,05,08,49,8.40
2011,05,05,08,50,8.40
2011,05,05,08,51,8.40
2011,05,05,08,52,8.50
2011,05,05,08,53,8.50
2011,05,05,08,54,8.50
2011,05,05,08,55,8.60
2011,05,05,08,56,8.60
2011,05,05,08,57,8.70
2011,05,05,08,58,8.70
2011,05,05,08,59,8.80
2011,05,05,09,00,8.90
2011,05,05,09,01,8.90
2011,05,05,09,02,9.00
2011,05,05,09,03,9.00
2011,05,05,09,04,9.10
2011,05,05,09,05,9.10
2011,05,05,09,06,9.10
2011,05,05,09,07,9.10
2011,05,05,09,08,9.10
2011,05,05,09,09,9.10
2011,05,05,09,10,9.10
2011,05,05,09,11,9.10
2011,05,05,09,12,9.20
2011,05,05,09,13,9.20
2011,05,05,09,14,9.20
2011,05,05,09,15,9.30
2011,05,05,09,16,9.30
2011,05,05,09,17,9.30
2011,05,05,09,18,9.40
2011,05,05,09,19,9.40
2011,05,05,09,20,9.40
2011,05,05,09,21,9.50
2011,05,05,09,22,9.50
2011,05,05,09,23,9.60
2011,05,05,09,24,9.60
2011,05,05,09,25,9.60
2011,05,05,09,26,9.60
2011,05,05,09,27,9.60
2011,05,05,09,28,9.60
2011,05,05,09,29,9.60
2011,05,05,09,30,9.60
2011,05,05,09,31,9.60
2011,05,05,09,32,9.60
2011,05,05,09,33,9.70
2011,05,05,09,34,9.70
2011,05,05,09,35,9.70
2011,05,05,09,36,9.70
2011,05,05,09,37,9.70
2011,05,05,09,38,9.70
2011,05,05,09,39,9.90
2011,05,05,09,40,10.00
2011,05,05,09,41,10.20
2011,05,05,09,42,10.40
2011,05,05,09,43,10.50
2011,05,05,09,44,10.60
2011,05,05,09,45,10.70
2011,05,05,09,46,10.60
2011,05,05,09,47,10.70
2011,05,05,09,48,10.70
2011,05,05,09,49,10.70
2011,05,05,09,50,10.70
2011,05,05,09,51,10.70
2011,05,05,09,52,10.70
2011,05,05,09,53,10.80
2011,05,05,09,54,10.80
2011,05,05,09,55,10.90
2011,05,05,09,56,11.00
2011,05,05,09,57,11.10
2011,05,05,09,58,11.00
2011,05,05,09,59,10.90
2011,05,05,10,00,10.70
2011,05,05,10,01,10.70
2011,05,05,10,02,10.50
2011,05,05,10,03,10.50
2011,05,05,10,04,10.50
2011,05,05,10,05,10.50
2011,05,05,10,06,10.40
2011,05,05,10,07,10.40
2011,05,05,10,08,10.40
2011,05,05,10,09,10.40
2011,05,05,10,10,10.40
2011,05,05,10,11,10.40
2011,05,05,10,12,10.40
2011,05,05,10,13,10.50
2011,05,05,10,14,10.50
2011,05,05,10,15,10.60
2011,05,05,10,16,10.70
2011,05,05,10,17,10.70
2011,05,05,10,18,10.70
2011,05,05,10,19,10.80
2011,05,05,10,20,10.70
2011,05,05,10,21,10.70
2011,05,05,10,22,10.70
2011,05,05,10,23,10.70
2011,05,05,10,24,10.70
2011,05,05,10,25,10.80
2011,05,05,10,26,10.90
2011,05,05,10,27,10.90
2011,05,05,10,28,11.00
2011,05,05,10,29,11.10
2011,05,05,10,30,11.10
2011,05,05,10,31,11.10
2011,05,05,10,32,11.10
2011,05,05,10,33,11.10
2011,05,05,10,34,11.20
2011,05,05,10,35,11.10
2011,05,05,10,36,11.10
2011,05,05,10,37,11.10
2011,05,05,10,38,11.10
2011,05,05,10,39,11.10
2011,05,05,10,40,11.10
2011,05,05,10,41,11.10
2011,05,05,10,42,11.10
2011,05,05,10,43,11.00
2011,05,05,10,44,10.90
2011,05,05,10,45,10.80
2011,05,05,10,46,10.80
2011,05,05,10,47,10.80
2011,05,05,10,48,10.80
2011,05,05,10,49,10.80
2011,05,05,10,50,10.80
2011,05,05,10,51,10.80
2011,05,05,10,52,10.80
2011,05,05,10,53,10.80
2011,05,05,10,54,10.80
2011,05,05,10,55,10.80
2011,05,05,10,56,10.70
2011,05,05,10,57,10.80
2011,05,05,10,58,10.80
2011,05,05,10,59,10.80
2011,05,05,11,00,10.70
2011,05,05,11,01,10.70
2011,05,05,11,02,10.70
2011,05,05,11,03,10.70
2011,05,05,11,04,10.70
2011,05,05,11,05,10.60
2011,05,05,11,06,10.60
2011,05,05,11,07,10.60
2011,05,05,11,08,10.60
2011,05,05,11,09,10.70
2011,05,05,11,10,10.70
2011,05,05,11,11,10.70
2011,05,05,11,12,10.70
2011,05,05,11,13,10.70
2011,05,05,11,14,10.80
2011,05,05,11,15,10.80
2011,05,05,11,16,10.90
2011,05,05,11,17,11.00
2011,05,05,11,18,11.00
2011,05,05,11,19,10.90
2011,05,05,11,20,10.90
2011,05,05,11,21,10.90
2011,05,05,11,22,10.90
2011,05,05,11,23,11.00
2011,05,05,11,24,11.00
2011,05,05,11,25,11.00
2011,05,05,11,26,11.00
2011,05,05,11,27,11.00
2011,05,05,11,28,11.00
2011,05,05,11,29,11.10
2011,05,05,11,30,11.20
2011,05,05,11,31,11.20
2011,05,05,11,32,11.20
2011,05,05,11,33,11.30
2011,05,05,11,34,11.30
2011,05,05,11,35,11.30
2011,05,05,11,36,11.30
2011,05,05,11,37,11.30
2011,05,05,11,38,11.30
2011,05,05,11,39,11.30
2011,05,05,11,40,11.30
2011,05,05,11,41,11.30
2011,05,05,11,42,11.40
2011,05,05,11,43,11.50
2011,05,05,11,44,11.60
2011,05,05,11,45,11.70
2011,05,05,11,46,11.70
2011,05,05,11,47,11.80
2011,05,05,11,48,11.90
2011,05,05,11,49,12.00
2011,05,05,11,50,12.00
2011,05,05,11,51,12.00
2011,05,05,11,52,12.00
2011,05,05,11,53,11.90
2011,05,05,11,54,11.80
2011,05,05,11,55,11.80
2011,05,05,11,56,11.80
2011,05,05,11,57,11.80
2011,05,05,11,58,11.80
2011,05,05,11,59,11.80
2011,05,05,12,00,11.90
2011,05,05,12,01,12.10
2011,05,05,12,02,12.20
2011,05,05,12,03,12.30
2011,05,05,12,04,12.40
2011,05,05,12,05,12.50
2011,05,05,12,06,12.70
2011,05,05,12,07,12.70
2011,05,05,12,08,12.80
2011,05,05,12,09,12.80
2011,05,05,12,10,12.80
2011,05,05,12,11,12.80
2011,05,05,12,12,12.80
2011,05,05,12,13,12.80
2011,05,05,12,14,12.60
2011,05,05,12,15,12.50
2011,05,05,12,16,12.40
2011,05,05,12,17,12.30
2011,05,05,12,18,12.20
2011,05,05,12,19,12.20
2011,05,05,12,20,12.10
2011,05,05,12,21,12.00
2011,05,05,12,22,11.90
2011,05,05,12,23,11.90
2011,05,05,12,24,11.90
2011,05,05,12,25,11.90
2011,05,05,12,26,11.90
2011,05,05,12,27,12.00
2011,05,05,12,28,12.00
2011,05,05,12,29,12.10
2011,05,05,12,30,12.10
2011,05,05,12,31,12.10
2011,05,05,12,32,12.20
2011,05,05,12,33,12.30
2011,05,05,12,34,12.30
2011,05,05,12,35,12.30
2011,05,05,12,36,12.30
2011,05,05,12,37,12.30
2011,05,05,12,38,12.20
2011,05,05,12,39,12.20
2011,05,05,12,40,12.30
2011,05,05,12,41,12.30
2011,05,05,12,42,12.30
2011,05,05,12,43,12.30
2011,05,05,12,44,12.40
2011,05,05,12,45,12.40
2011,05,05,12,46,12.50
2011,05,05,12,47,12.60
2011,05,05,12,48,12.60
2011,05,05,12,49,12.60
2011,05,05,12,50,12.60
2011,05,05,12,51,12.60
2011,05,05,12,52,12.60
2011,05,05,12,53,12.60
2011,05,05,12,54,12.70
2011,05,05,12,55,12.70
2011,05,05,12,56,12.70
2011,05,05,12,57,12.70
2011,05,05,12,58,12.70
2011,05,05,12,59,12.70
2011,05,05,13,00,12.70
2011,05,05,13,01,12.70
2011,05,05,13,02,12.70
2011,05,05,13,03,12.60
2011,05,05,13,04,12.60
2011,05,05,13,05,12.60
2011,05,05,13,06,12.60
2011,05,05,13,07,12.50
2011,05,05,13,08,12.50
2011,05,05,13,09,12.50
2011,05,05,13,10,12.50
2011,05,05,13,11,12.50
2011,05,05,13,12,12.40
2011,05,05,13,13,12.50
2011,05,05,13,14,12.50
2011,05,05,13,15,12.60
2011,05,05,13,16,12.60
2011,05,05,13,17,12.70
2011,05,05,13,18,12.80
2011,05,05,13,19,12.80
2011,05,05,13,20,12.80
2011,05,05,13,21,12.80
2011,05,05,13,22,12.80
2011,05,05,13,23,12.90
2011,05,05,13,24,12.80
2011,05,05,13,25,12.80
2011,05,05,13,26,12.80
2011,05,05,13,27,12.80
2011,05,05,13,28,12.70
2011,05,05,13,29,12.50
2011,05,05,13,30,12.40
2011,05,05,13,31,12.30
2011,05,05,13,32,12.20
2011,05,05,13,33,12.10
2011,05,05,13,34,12.00
2011,05,05,13,35,11.80
2011,05,05,13,36,11.70
2011,05,05,13,37,11.60
2011,05,05,13,38,11.60
2011,05,05,13,39,11.60
2011,05,05,13,40,11.60
2011,05,05,13,41,11.60
2011,05,05,13,42,11.70
2011,05,05,13,43,11.70
2011,05,05,13,44,11.80
2011,05,05,13,45,11.80
2011,05,05,13,46,11.80
2011,05,05,13,47,11.80
2011,05,05,13,48,11.90
2011,05,05,13,49,12.00
2011,05,05,13,50,12.00
2011,05,05,13,51,12.10
2011,05,05,13,52,12.20
2011,05,05,13,53,12.30
2011,05,05,13,54,12.40
2011,05,05,13,55,12.30
2011,05,05,13,56,12.20
2011,05,05,13,57,12.20
2011,05,05,13,58,12.20
2011,05,05,13,59,12.10
2011,05,05,14,00,12.10
2011,05,05,14,01,12.00
2011,05,05,14,02,12.00
2011,05,05,14,03,12.10
2011,05,05,14,04,12.10
2011,05,05,14,05,12.10
2011,05,05,14,06,12.20
2011,05,05,14,07,12.20
2011,05,05,14,08,12.20
2011,05,05,14,09,12.20
2011,05,05,14,10,12.20
2011,05,05,14,11,12.30
2011,05,05,14,12,12.30
2011,05,05,14,13,12.40
2011,05,05,14,14,12.50
2011,05,05,14,15,12.60
2011,05,05,14,16,12.60
2011,05,05,14,17,12.70
2011,05,05,14,18,12.70
2011,05,05,14,19,12.70
2011,05,05,14,20,12.70
2011,05,05,14,21,12.60
2011,05,05,14,22,12.50
2011,05,05,14,23,12.40
2011,05,05,14,24,12.30
2011,05,05,14,25,12.40
2011,05,05,14,26,12.50
2011,05,05,14,27,12.50
2011,05,05,14,28,12.60
2011,05,05,14,29,12.60
2011,05,05,14,30,12.60
2011,05,05,14,31,12.60
2011,05,05,14,32,12.70
2011,05,05,14,33,12.70
2011,05,05,14,34,12.70
2011,05,05,14,35,12.70
2011,05,05,14,36,12.80
2011,05,05,14,37,12.80
2011,05,05,14,38,12.80
2011,05,05,14,39,12.90
2011,05,05,14,40,12.90
2011,05,05,14,41,12.80
2011,05,05,14,42,12.70
2011,05,05,14,43,12.70
2011,05,05,14,44,12.70
2011,05,05,14,45,12.70
2011,05,05,14,46,12.70
2011,05,05,14,47,12.70
2011,05,05,14,48,12.80
2011,05,05,14,49,12.70
2011,05,05,14,50,12.70
2011,05,05,14,51,12.60
2011,05,05,14,52,12.40
2011,05,05,14,53,12.20
2011,05,05,14,54,12.10
2011,05,05,14,55,12.10
2011,05,05,14,56,12.10
2011,05,05,14,57,12.10
2011,05,05,14,58,12.20
2011,05,05,14,59,12.20
2011,05,05,15,00,12.20
2011,05,05,15,01,12.20
2011,05,05,15,02,12.10
2011,05,05,15,03,12.20
2011,05,05,15,04,12.20
2011,05,05,15,05,12.10
2011,05,05,15,06,12.00
2011,05,05,15,07,12.00
2011,05,05,15,08,11.90
2011,05,05,15,09,11.90
2011,05,05,15,10,12.00
2011,05,05,15,11,11.90
2011,05,05,15,12,11.80
2011,05,05,15,13,11.70
2011,05,05,15,14,11.70
2011,05,05,15,15,11.70
2011,05,05,15,16,11.70
2011,05,05,15,17,11.60
2011,05,05,15,18,11.60
2011,05,05,15,19,11.60
2011,05,05,15,20,11.60
2011,05,05,15,21,11.60
2011,05,05,15,22,11.60
2011,05,05,15,23,11.50
2011,05,05,15,24,11.50
2011,05,05,15,25,11.50
2011,05,05,15,26,11.50
2011,05,05,15,27,11.50
2011,05,05,15,28,11.50
2011,05,05,15,29,11.50
2011,05,05,15,30,11.60
2011,05,05,15,31,11.70
2011,05,05,15,32,11.70
2011,05,05,15,33,11.70
2011,05,05,15,34,11.60
2011,05,05,15,35,11.60
2011,05,05,15,36,11.60
2011,05,05,15,37,11.60
2011,05,05,15,38,11.70
2011,05,05,15,39,11.70
2011,05,05,15,40,11.80
2011,05,05,15,41,11.90
2011,05,05,15,42,12.00
2011,05,05,15,43,12.00
2011,05,05,15,44,12.00
2011,05,05,15,45,12.10
2011,05,05,15,46,12.10
2011,05,05,15,47,12.10
2011,05,05,15,48,12.10
2011,05,05,15,49,12.20
2011,05,05,15,50,12.20
2011,05,05,15,51,12.20
2011,05,05,15,52,12.20
2011,05,05,15,53,12.20
2011,05,05,15,54,12.20
2011,05,05,15,55,12.10
2011,05,05,15,56,12.10
2011,05,05,15,57,12.10
2011,05,05,15,58,12.10
2011,05,05,15,59,12.10
2011,05,05,16,00,12.10
2011,05,05,16,01,12.00
2011,05,05,16,02,11.90
2011,05,05,16,03,11.80
2011,05,05,16,04,11.80
2011,05,05,16,05,11.70
2011,05,05,16,06,11.70
2011,05,05,16,07,11.70
2011,05,05,16,08,11.60
2011,05,05,16,09,11.60
2011,05,05,16,10,11.60
2011,05,05,16,11,11.60
2011,05,05,16,12,11.50
2011,05,05,16,13,11.50
2011,05,05,16,14,11.50
2011,05,05,16,15,11.50
2011,05,05,16,16,11.40
2011,05,05,16,17,11.40
2011,05,05,16,18,11.50
2011,05,05,16,19,11.60
2011,05,05,16,20,11.60
2011,05,05,16,21,11.70
2011,05,05,16,22,11.70
2011,05,05,16,23,11.70
2011,05,05,16,24,11.70
2011,05,05,16,25,11.70
2011,05,05,16,26,11.60
2011,05,05,16,27,11.70
2011,05,05,16,28,11.70
2011,05,05,16,29,11.70
2011,05,05,16,30,11.70
2011,05,05,16,31,11.60
2011,05,05,16,32,11.60
2011,05,05,16,33,11.50
2011,05,05,16,34,11.40
2011,05,05,16,35,11.40
2011,05,05,16,36,11.30
2011,05,05,16,37,11.30
2011,05,05,16,38,11.20
2011,05,05,16,39,11.20
2011,05,05,16,40,11.20
2011,05,05,16,41,11.10
2011,05,05,16,42,11.10
2011,05,05,16,43,11.00
2011,05,05,16,44,11.10
2011,05,05,16,45,11.10
2011,05,05,16,46,11.20
2011,05,05,16,47,11.20
2011,05,05,16,48,11.30
2011,05,05,16,49,11.40
2011,05,05,16,50,11.40
2011,05,05,16,51,11.50
2011,05,05,16,52,11.50
2011,05,05,16,53,11.50
2011,05,05,16,54,11.50
2011,05,05,16,55,11.50
2011,05,05,16,56,11.50
2011,05,05,16,57,11.50
2011,05,05,16,58,11.50
2011,05,05,16,59,11.50
2011,05,05,17,00,11.50
2011,05,05,17,01,11.60
2011,05,05,17,02,11.60
2011,05,05,17,03,11.60
2011,05,05,17,04,11.60
2011,05,05,17,05,11.70
2011,05,05,17,06,11.60
2011,05,05,17,07,11.60
2011,05,05,17,08,11.60
2011,05,05,17,09,11.60
2011,05,05,17,10,11.70
2011,05,05,17,11,11.70
2011,05,05,17,12,11.70
2011,05,05,17,13,11.60
2011,05,05,17,14,11.50
2011,05,05,17,15,11.40
2011,05,05,17,16,11.40
2011,05,05,17,17,11.40
2011,05,05,17,18,11.40
2011,05,05,17,19,11.40
2011,05,05,17,20,11.40
2011,05,05,17,21,11.40
2011,05,05,17,22,11.40
2011,05,05,17,23,11.30
2011,05,05,17,24,11.30
2011,05,05,17,25,11.20
2011,05,05,17,26,11.20
2011,05,05,17,27,11.20
2011,05,05,17,28,11.20
2011,05,05,17,29,11.20
2011,05,05,17,30,11.20
2011,05,05,17,31,11.20
2011,05,05,17,32,11.20
2011,05,05,17,33,11.30
2011,05,05,17,34,11.30
2011,05,05,17,35,11.30
2011,05,05,17,36,11.30
2011,05,05,17,37,11.20
2011,05,05,17,38,11.20
2011,05,05,17,39,11.20
2011,05,05,17,40,11.20
2011,05,05,17,41,11.20
2011,05,05,17,42,11.20
2011,05,05,17,43,11.20
2011,05,05,17,44,11.10